Tracking 18984 objects as of 24-Feb-2018
HD Live streaming from Space Station
objects crossing your sky now

COSMOS 2242

Track COSMOS 2242 now!
10-day predictions
COSMOS 2242 is classified as:


NORAD ID: 22626
Int'l Code: 1993-024A
Perigee: 598.7 km
Apogee: 625.4 km
Inclination: 82.5 °
Period: 96.8 minutes
Semi major axis: 6983 km
RCS: 9.205 m2 (large)
Launch date: April 16, 1993
Source: Commonwealth of Independent States (former USSR) (CIS)
Launch site: PLESETSK MISSILE AND SPACE COMPLEX (PKMTR)

Cosmos 2242 was a Russian ELINT (Electronic and Signals Intelligence) satellite.
aabbcc
Your satellite tracking list
Your tracking list is empty




NASA's NSSDC Master Catalog

Two Line Element Set (TLE):
1 22626U 93024A   18054.41321519 +.00000169 +00000-0 +15751-4 0  9999
2 22626 082.5245 164.9638 0019100 011.7621 348.4038 14.87771661343505
Source of the keplerian elements: AFSPC